DELTA 1 DEB

Satellite information

Favourite Embed

Satellite Type and Status

DEBRISIN ORBIT

Key statistics

Satellite DELTA 1 DEB at a glance.

Uptime

18989

Days in orbit

Revolutions

≈ 12.6

Per day

Orbit

SSO

Sun Synchronous Orbit

Inclination

101.9

Latest

Satellite identification and parameters

Extended collection of information and parameters for DELTA 1 DEB.

Object identification

Identified? True

Debris? True

Object name: DELTA 1 DEB

International designator: 1973-086HE

Object number (NORAD): 19360

Object ID (CCSDS): 19360

Country: UNITED STATES OF AMERICA (US)

Current information (Y/N): Y

RCS size: SMALL

Orbital parameters

Period: 114.568 minutes

Inclination: 101.8884 deg

SMA: 7813.926 km

Apoapsis: 1477.286 km

Periapsis: 1394.296 km

RAAN: 15.4762 deg

Eccentricy: 0.00531043

Argument of periapsis: 206.8099 deg

Mean anomaly: 309.6879 deg

Mean motion: 12.56894503 rev/day

Mean motion (dot): 0.00001275 rev/day2

B* drag term: 0.0078875266 1/REarth

Two-line elements (TLE)

Creation date: Oct. 31, 2025, 3 a.m.

Reference frame: TEME

Reference center: EARTH

Epoch: Oct. 30, 2025, 5:04 p.m. UTC

TLE line 0: 0 DELTA 1 DEB

TLE line 1: 1 19360U 73086HE 25303.71136892 .00001275 00000-0 78875-2 0 9995

TLE line 2: 2 19360 101.8884 15.4762 0053104 206.8099 309.6879 12.56894503850999

Live tracking on map

Real-time ground track for satellite DELTA 1 DEB.

In-orbit conjunctions

A list of the most updated potential collisions computed for object DELTA 1 DEB.

Target Orbit TCA Probability of collision Miss distance Type
COSMOS 762 LEO 2025-10-20 08:19:12 0.000174749 249.0 (m) PAYLOAD
COSMOS 1529 LEO 2024-06-03 14:22:55 0.0001727037 355.0 (m) PAYLOAD
COSMOS 2010 LEO 2024-06-02 23:10:21 0.0001010249 432.0 (m) PAYLOAD

Associated space launch

Meteorological satellite using radiometric imaging

DELTA 1 DEB was lifted into orbit during the mission ‘Delta 0300 | NOAA 3’, on board a Delta 0300 space rocket.

The launch took place on Nov. 6, 1973, 5:02 p.m. from Space Launch Complex 2W.

For more information about the launch, click the button.

Launch to space Delta 0300 | NOAA 3
Delta 0300 | NOAA 3

Agency: N/A

Status: Launch Successful

Launch date: Nov. 6, 1973, 5:02 p.m. UTC

Rocket: Delta 0300

Launch pad: Space Launch Complex 2W

Location: Vandenberg SFB, CA, USA

...

Latest news about this satellite

There are no fresh news available about this satellite. Check back as we update our databases every day.


Newsletter sign-up

Weekly statistics, charts and insights to help you stay on top of the space industry.